STARLINK-1480, 45741

Orbit data source: Space-Track

STARLINK-1480, 45741 is a payload satellite owned by SpaceX/Seattle (US) in LEO that was launched on Sat, 13 Jun 2020 UTC via an FALCON 9 launch vehicle from the Air Force Eastern Test Range (AFETR). Payload-class satellites include a variety of spacecraft equipped with specific instruments for various scientific and technological missions. These include communications satellites like Starlink; space stations such as the ISS; scientific satellites like the Hubble; Earth observation satellites from companies like Planet Labs, Umbra, and HawkEye 360; GPS; miniature CubeSats for education and research; and military/defense satellites.

Loading next visibility...
Identifier
45741, 2020-038M
Orbit
LEO
Country
Flag of USUS
Related business
Manufacturer
SpaceX/Seattle
Mission
Partially operational Commercial Communications
Bus & Motor
STARLINK, Unknown motor
Mass
260 kg wet, ~248 kg dry
Launch date (UTC)
2020-06-13 (6 years ago)
Launch vehicle
FALCON 9
Launch site
Air Force Eastern Test Range (AFETR)
Object type
Payload
Rocket body
Debris
Shape & HBR
Box + 1 Pan, 10.1 m
Radar Cross Section
13.562 m², Large (>1 m²)

Expand to show TLE details & history
Last TLE update: 10 hours ago

TLE from 10 hours ago
0 STARLINK-1480
1 45741U 20038M   26237.87597372  .00085664  00000-0  59672-3 0  9993
2 45741  53.0446 108.8699 0001335 206.2610 153.8341 15.73655631342944
Epoch: 2026-08-25T21:01Z
TLE epoch observation values (Epoch: 2026-08-25T21:01:24.129Z)
Latitude
0.00002°
Longitude
179.38233°
Altitude
350.169 km
Speed
7.7 km/s
True Right ascension
07h 15m 28s
True Declination
0° 00' 00"
Sunlit
Object was in daylight at epoch
Visualization orbit readout
Latitude
Unknown
Longitude
Unknown
Altitude
Unknown
Speed
Unknown
Apparent Right ascension
Unknown
Apparent Declination
Unknown
Sunlit
N/A
Visualization observer readout
Local Sidereal Time
22:14:48
Azimuth
Unknown
Elevation
Unknown
Doppler factor
Unknown
Orbital elements
Apogee altitude
349.638 km
Perigee altitude
347.842 km
Semi-major axis
6,726.877 km
Eccentricity
0.00013
Inclination
53.0446°
RAAN
108.8699°
Arg. of periapsis
206.261°
True anomaly
153.84084°
Mean anomaly
153.8341°
Eccentric anomaly
153.83747°
Mean motion
3.9339 °/min
Orbital period
91.51 mins
BSTAR
0.00059672
Loading maneuver chart data...
Computing Atmospheric mass density...
Loading historical data...
Loading historical data...
Loading historical data...
Loading historical data...
Loading historical data...
Loading historical data...
Loading historical data...

Documentation

Showing up to 5 results
|